Naples, Italy

1:48 AM CET on December 05, 2016 (GMT +0100)
Capodichino Mil

Weather History for LIRN - December, 2012

Change the Weather History Date:

Tuesday, December 4, 2012

  Actual Average Record
Temperature  
Mean Temperature 46 °F -  
Max Temperature 59 °F 59 °F 104 °F (2001)
Min Temperature 33 °F 44 °F 33 °F (2006)
Degree Days  
Heating Degree Days 19    
Moisture  
Dew Point 43 °F    
Average Humidity 80    
Maximum Humidity 100    
Minimum Humidity 62    
Precipitation  
Precipitation 0.00 in - - ()
Sea Level Pressure  
Sea Level Pressure 29.83 in    
Wind  
Wind Speed 5 mph ()    
Max Wind Speed 17 mph    
Max Gust Speed 38 mph    
Visibility 4.9 miles    
Events Rain    
Averages and records for this station are not official NWS values.
T = Trace of Precipitation, MM = Missing Value Source: Averaged Metar Reports

Daily Weather History Graph

Daily Weather History Graph

Search for Another Location

Airport or City:

Trip Planner

Search our weather history database for the weather conditions in past years. The results will help you decide how hot, cold, wet, or windy it might be!

Date:

Astronomy

Dec. 04, 2012 Rise Set
Actual Time 7:11 AM CET 4:34 PM CET
Civil Twilight 6:40 AM CET 5:05 PM CET
Nautical Twilight 6:06 AM CET 5:39 PM CET
Astronomical Twilight 5:33 AM CET 6:13 PM CET
Moon 10:06 PM CET (12/4) 10:55 AM CET (12/4)
Length of Visible Light 10h 25m
Length of Day
9h 23m
Waning Gibbous, 72% of the Moon is Illuminated
Dec 4
Waning Gibbous
Dec 6
Last Quarter
Dec 13
New
Dec 20
First Quarter
Dec 28
Full

Hourly Weather History & Observations

Time (CET) Temp. Windchill Dew Point Humidity Pressure Visibility Wind Dir Wind Speed Gust Speed Precip Events Conditions
12:20 AM 39.2 °F - 33.8 °F 81% 30.04 in 5.0 mi Variable 2.3 mph - N/A   Unknown
12:50 AM 37.4 °F 33.8 °F 32.0 °F 81% 30.04 in 5.0 mi NE 4.6 mph - N/A   Unknown
1:20 AM 37.4 °F 34.9 °F 32.0 °F 81% 30.04 in 5.0 mi NE 3.5 mph - N/A   Unknown
1:50 AM 33.8 °F 30.8 °F 30.2 °F 87% 30.04 in 5.0 mi West 3.5 mph - N/A   Unknown
2:20 AM 35.6 °F 32.8 °F 30.2 °F 81% 30.01 in 5.0 mi West 3.5 mph - N/A   Unknown
2:50 AM 35.6 °F 32.8 °F 32.0 °F 87% 30.01 in 5.0 mi West 3.5 mph - N/A   Unknown
3:20 AM 39.2 °F - 33.8 °F 81% 30.01 in 5.0 mi Variable 1.2 mph - N/A   Unknown
3:50 AM 39.2 °F 35.9 °F 33.8 °F 81% 30.01 in 5.0 mi NNE 4.6 mph - N/A   Unknown
4:20 AM 39.2 °F - 33.8 °F 81% 29.98 in 5.0 mi North 2.3 mph - N/A   Unknown
4:50 AM 41.0 °F - 32.0 °F 70% 29.98 in 5.0 mi Variable 2.3 mph - N/A   Unknown
5:20 AM 42.8 °F - 32.0 °F 66% 29.98 in 5.0 mi Variable 2.3 mph - N/A   Mostly Cloudy
5:50 AM 42.8 °F - 32.0 °F 66% 29.98 in 5.0 mi Variable 2.3 mph - N/A   Mostly Cloudy
6:20 AM 42.8 °F 41.1 °F 32.0 °F 66% 29.95 in 5.0 mi ENE 3.5 mph - N/A   Mostly Cloudy
6:50 AM 44.6 °F 42.2 °F 33.8 °F 66% 29.95 in 6.2 mi NNE 4.6 mph - N/A   Mostly Cloudy
7:20 AM 44.6 °F - 33.8 °F 66% 29.95 in 6.2 mi Variable 2.3 mph - N/A   Mostly Cloudy
7:50 AM 44.6 °F - 35.6 °F 71% 29.95 in 6.2 mi Variable 2.3 mph - N/A   Scattered Clouds
8:20 AM 46.4 °F 45.2 °F 37.4 °F 71% 29.92 in 6.2 mi NW 3.5 mph - N/A   Scattered Clouds
8:50 AM 48.2 °F - 35.6 °F 62% 29.92 in 6.2 mi North 4.6 mph - N/A   Scattered Clouds
9:20 AM 50.0 °F - 37.4 °F 62% 29.92 in 6.2 mi Variable 1.2 mph - N/A   Scattered Clouds
9:50 AM 50.0 °F - 41.0 °F 71% 29.89 in 6.2 mi Variable 1.2 mph - N/A Rain Light Rain
10:20 AM 51.8 °F - 46.4 °F 82% 29.89 in 1.2 mi SSE 3.5 mph - N/A Rain Rain
10:50 AM 51.8 °F - 50.0 °F 94% 29.89 in 3.7 mi SSW 8.1 mph - N/A Rain Rain
11:20 AM 55.4 °F - 51.8 °F 88% 29.86 in 3.7 mi SSW 4.6 mph - N/A   Mostly Cloudy
11:50 AM 55.4 °F - 51.8 °F 88% 29.86 in 6.2 mi South 4.6 mph - N/A   Mostly Cloudy
12:20 PM 55.4 °F - 51.8 °F 88% 29.83 in 5.0 mi South 3.5 mph - N/A   Mostly Cloudy
12:50 PM 57.2 °F - 53.6 °F 88% 29.83 in 1.9 mi SW 5.8 mph - N/A Rain Rain
1:20 PM 57.2 °F - 53.6 °F 88% 29.80 in 5.0 mi South 3.5 mph - N/A Rain Light Rain
1:50 PM 55.4 °F - 53.6 °F 94% 29.77 in 2.5 mi South 4.6 mph - N/A Rain Rain
2:20 PM 55.4 °F - 55.4 °F 100% 29.74 in 2.5 mi WSW 5.8 mph - N/A Rain Rain
2:50 PM 59.0 °F - 53.6 °F 82% 29.71 in 2.5 mi SW 11.5 mph 23.0 mph N/A Rain Rain
3:20 PM 55.4 °F - 51.8 °F 88% 29.74 in 2.5 mi NW 8.1 mph - N/A Rain Rain
3:50 PM 53.6 °F - 50.0 °F 88% 29.71 in 1.6 mi West 13.8 mph 32.2 mph N/A Rain Rain
4:20 PM 53.6 °F - 50.0 °F 88% 29.71 in 5.0 mi WSW 9.2 mph - N/A Rain Rain
4:50 PM 55.4 °F - 51.8 °F 88% 29.68 in 6.2 mi South 3.5 mph - N/A   Overcast
5:20 PM 55.4 °F - 51.8 °F 88% 29.68 in 6.2 mi NW 5.8 mph - N/A Rain Rain
5:50 PM 55.4 °F - 51.8 °F 88% 29.68 in 6.2 mi SSW 4.6 mph - N/A   Mostly Cloudy
6:20 PM 59.0 °F - 48.2 °F 67% 29.65 in 6.2 mi WSW 17.3 mph - N/A Rain Light Rain
6:50 PM 59.0 °F - 48.2 °F 67% 29.65 in 6.2 mi WSW 17.3 mph - N/A Rain Light Rain
7:20 PM 59.0 °F - 50.0 °F 72% 29.65 in 6.2 mi WSW 16.1 mph 38.0 mph N/A Rain Rain
7:50 PM 55.4 °F - 51.8 °F 88% 29.65 in 3.1 mi WSW 16.1 mph - N/A Rain Rain
8:20 PM 55.4 °F - 50.0 °F 82% 29.62 in 3.1 mi WSW 13.8 mph - N/A Rain Light Rain
8:50 PM 55.4 °F - 50.0 °F 82% 29.62 in 3.1 mi West 17.3 mph - N/A Rain Rain
9:20 PM 53.6 °F - 48.2 °F 82% 29.62 in 5.0 mi NW 11.5 mph 23.0 mph N/A Rain Light Rain
9:50 PM 53.6 °F - 46.4 °F 77% 29.62 in 6.2 mi Variable 1.2 mph - N/A   Mostly Cloudy
10:50 PM 51.8 °F - 48.2 °F 88% 29.59 in 6.2 mi Variable 3.5 mph - N/A Rain Rain
11:20 PM 53.6 °F - 50.0 °F 88% 29.59 in 6.2 mi SW 5.8 mph - N/A Rain Light Rain
11:50 PM 57.2 °F - 46.4 °F 67% 29.59 in 6.2 mi West 13.8 mph - N/A   Scattered Clouds